Flag for Canada Weather past 2 weeks in Churchill, Manitoba, Canada

Now
46 °F

Passing clouds.


Feels Like: 44 °F
Forecast: 53 / 70 °F
Wind: 5 mph from Southeast

Location: Churchill

Current Time: Jul 29, 2014 at 8:23:33 AM

Latest Report: Jul 29, 2014 at 7:00 AM


Visibility: 15 mi

Pressure: 30.20 "Hg

Humidity: 100%

Dew point: 46 °F

Location of ChurchillLocation

Historic Weather in Churchill — Graph

°F

Churchill temperature yesterday

Maximum temperature yesterday: 66 °F (at 1:00 AM)
Minimum temperature yesterday: 48 °F (at 11:00 PM)
Average temperature yesterday: 57 °F

Past Weeks' High & Low Weather Summary

 TemperatureHumidityPressure
High82 °F (Jul 16, 2:00 PM)100% (Jul 20, 2:00 PM)30.28 "Hg (Jul 20, 2:00 PM)
Low43 °F (Jul 29, 3:00 AM)33% (Jul 19, 5:00 PM)29.41 "Hg (Jul 20, 8:00 PM)
Average58 °F76%29.87 "Hg
* Reported Jul 14 7:00 AM — Jul 29 7:00 AM, Churchill, Weather by CustomWeather, © 2014

Note: Actual official high and low records may vary slightly from our data, if they occured in-between our weather recording intervals... More about our weather records

Advertising

Churchill weather history for previous 24 hours

 ConditionsComfort  
Time TempWeatherWind HumidityBarometerVisibility
7:00 AM
Jul 29
46 °FPassing clouds.5 mph100%30.20 "Hg15 mi
6:00 AM45 °FFog.6 mph100%30.18 "Hg6 mi
5:00 AM43 °FFog.7 mph100%30.17 "Hg1 mi
4:00 AM45 °FFog.6 mph100%30.17 "Hg1 mi
3:00 AM43 °FFog.6 mph100%30.17 "Hg1 mi
2:00 AM45 °FFog.6 mph100%30.17 "Hg1 mi
1:00 AM46 °FFog.6 mph100%30.17 "Hg1 mi
12:00 AM46 °FFog.9 mph100%30.16 "Hg1 mi
11:00 PM
Jul 28
48 °FFog.12 mph94%30.15 "Hg0 mi
10:00 PM50 °FFog.10 mph94%30.14 "Hg1 mi
9:00 PM50 °FFog.12 mph100%30.13 "Hg1 mi
8:52 PM50 °FFog.12 mph100%30.13 "Hg1 mi
8:00 PM54 °FPartly sunny.10 mph88%30.13 "Hg15 mi
7:00 PM52 °FPartly sunny.12 mph94%30.13 "Hg15 mi
6:00 PM54 °FScattered clouds.12 mph88%30.12 "Hg10 mi
5:00 PM54 °FFog.10 mph94%30.12 "Hg1 mi
4:00 PM57 °FFog.13 mph88%30.12 "Hg1 mi
3:49 PM57 °FFog.10 mph88%30.12 "Hg3 mi
3:00 PM59 °FScattered clouds.6 mph88%30.11 "Hg10 mi
2:00 PM57 °FOvercast.10 mph88%30.11 "Hg15 mi
1:00 PM59 °FOvercast.10 mph82%30.10 "Hg15 mi
12:00 PM59 °FScattered clouds.9 mph82%30.09 "Hg15 mi
11:00 AM63 °FPassing clouds.6 mph77%30.08 "Hg15 mi
10:00 AM59 °FScattered clouds.6 mph77%30.07 "Hg15 mi
9:00 AM57 °FScattered clouds.12 mph82%30.06 "Hg15 mi
8:00 AM57 °FPartly sunny.12 mph88%30.04 "Hg15 mi
Weather by CustomWeather, © 2014

See weather overviewHow to use our weather pages